(326139) = 2006 XE55 = 2010 MC20 = 2012 BE25

Discovered at Mount Lemmon on 2006-10-20 by Mt. Lemmon Survey.

Orbit

Orbit type: Main Belt

Note: WebGL enabled browser required.

epoch2022-01-21.0
epoch JD2459600.5
perihelion date2020-12-07.83886
perihelion JD2459191.33886
argument of perihelion (°)142.93941
ascending node (°)298.19863
inclination (°)6.79356
eccentricity0.2023750
perihelion distance (AU)2.2366353
Tisserand w.r.t. Jupiter3.3
ΔV w.r.t. Earth (km/sec)9.7
semimajor axis (AU)2.8041190
mean anomaly (°)85.88228
mean daily motion (°/day)0.20989840
aphelion distance (AU)3.372
period (years)4.7
P-vector [x]0.15032525
P-vector [y]0.87633748
P-vector [z]0.45764063
Q-vector [x]-0.98312444
Q-vector [y]0.18132031
Q-vector [z]-0.02427528
absolute magnitude16.67
phase slope0.15
uncertainty0
referenceMPO 697643
observations used234
oppositions11
arc length (days)9312
first opposition used1996
last opposition used2022
residual rms (arc-secs)0.87
perturbers coarse indicatorM-v
perturbers precise indicator003Ek
first observation date used1996-10-06.0
last observation date used2022-04-05.0
computer namePan
JD of orbit computation2456465.511277
perihelion JD uncertainty (days)1.6990E-04
argument of perihelion uncertainty (°)6.1523E-05
ascending node uncertainty (°)4.7776E-05
inclination uncertainty (°)8.9490E-06
eccentricity uncertainty 1.1449E-07
perihelion distance uncertainty (AU)2.9112E-07
Minimum Orbit Intersection Distances (in AU)
for orbit epoch: 2458200.5, reference: MPO408349
Mercury1.93821
Venus1.52802
Earth1.26513
Mars0.671405
Jupiter1.88618
Saturn6.69825
Uranus15.2729
Neptune26.8306

Observations

241 total observations over interval: 1996 10 06.15058 – 2022 04 05.362175
These data are available for download (format description).

Date (UT) J2000 RA J2000 Dec Magn Location Ref
1996 10 06.15058 23 55 00.92 +10 42 26.4 20.0 V 691 – Steward Observatory, Kitt Peak-Spacewatch MPS 414314
1996 10 06.17187 23 54 59.81 +10 42 19.2   691 – Steward Observatory, Kitt Peak-Spacewatch MPS 414314
1996 10 06.19754 23 54 58.50 +10 42 12.3   691 – Steward Observatory, Kitt Peak-Spacewatch MPS 414314
2001 12 20.08725 02 26 39.20 +23 56 03.7 20.2   644 – Palomar Mountain/NEAT MPS 414314
2001 12 20.10822 02 26 39.27 +23 55 58.0 20.6   644 – Palomar Mountain/NEAT MPS 414314
2001 12 20.13042 02 26 39.24 +23 55 51.9 20.5   644 – Palomar Mountain/NEAT MPS 414314
2006 10 20.46363 06 59 32.17 +28 24 57.7 20.7 V G96 – Mt. Lemmon Survey MPS 413075
2006 10 20.46566 06 59 32.35 +28 24 57.3 21.0 V G96 – Mt. Lemmon Survey MPS 413075
2006 10 20.46774 06 59 32.42 +28 24 56.8 21.2 V G96 – Mt. Lemmon Survey MPS 413075
2006 10 20.46978 06 59 32.56 +28 24 56.4 21.5 V G96 – Mt. Lemmon Survey MPS 413075
2006 12 15.34149 07 05 47.60 +27 16 09.1 19.6   704 – Lincoln Laboratory ETS, New Mexico MPS 192661
2006 12 15.36847 07 05 46.23 +27 16 06.8 19.7   704 – Lincoln Laboratory ETS, New Mexico MPS 192661
2006 12 15.38197 07 05 45.53 +27 16 06.6 19.7   704 – Lincoln Laboratory ETS, New Mexico MPS 192661
2006 12 18.33280 07 03 13.40 +27 11 27.7 19.2   704 – Lincoln Laboratory ETS, New Mexico MPS 192661
2006 12 18.34572 07 03 12.69 +27 11 26.2 19.0   704 – Lincoln Laboratory ETS, New Mexico MPS 192661
2006 12 18.35870 07 03 11.92 +27 11 25.8 19.6   704 – Lincoln Laboratory ETS, New Mexico MPS 192661
2006 12 18.38456 07 03 10.51 +27 11 22.7 19.0   704 – Lincoln Laboratory ETS, New Mexico MPS 192661
2006 12 21.23033 07 00 33.03 +27 06 24.5 19.6 V 691 – Steward Observatory, Kitt Peak-Spacewatch MPS 192661
2006 12 21.24769 07 00 32.00 +27 06 22.7 19.7 V 691 – Steward Observatory, Kitt Peak-Spacewatch MPS 192661
2006 12 21.26505 07 00 30.96 +27 06 21.0 19.6 V 691 – Steward Observatory, Kitt Peak-Spacewatch MPS 192661
2006 12 25.22533 06 56 37.88 +26 58 31.6 19.9 V 691 – Steward Observatory, Kitt Peak-Spacewatch MPS 192661
2006 12 25.24265 06 56 36.79 +26 58 29.5 19.9 V 691 – Steward Observatory, Kitt Peak-Spacewatch MPS 192661
2006 12 25.25997 06 56 35.72 +26 58 27.3 19.9 V 691 – Steward Observatory, Kitt Peak-Spacewatch MPS 192661
2010 06 18.11145 23 42 20.38 +02 53 36.1   C51 – WISE MPS 335436
2010 06 18.111450 23 42 20.41 +02 53 35.5   C51 – WISE MPS 335436
2010 06 18.243753 23 42 26.258 +02 54 38.99   C51 – WISE MPS 904069
2010 06 18.706881 23 42 46.84 +02 58 06.7   C51 – WISE MPS 335436
2010 06 18.772969 23 42 49.72 +02 58 38.5   C51 – WISE MPS 335436
2010 06 18.839185 23 42 52.82 +02 59 06.7   C51 – WISE MPS 335436
2010 06 18.905273 23 42 55.54 +02 59 37.8   C51 – WISE MPS 335436
2010 06 18.971361 23 42 58.46 +03 00 07.8   C51 – WISE MPS 335436
2010 06 18.971488 23 42 58.44 +03 00 09.3   C51 – WISE MPS 335436
2010 06 19.103666 23 43 04.25 +03 01 09.3   C51 – WISE MPS 335436
2010 06 19.235969 23 43 10.00 +03 02 07.5   C51 – WISE MPS 335436
2010 06 19.36827 23 43 15.86 +03 03 06.7   C51 – WISE MPS 335436
2010 06 19.500576 23 43 21.56 +03 04 07.3   C51 – WISE MPS 335436
2010 09 14.38574 23 35 49.16 +07 16 56.2 19.7 V G96 – Mt. Lemmon Survey MPS 413075
2010 09 14.39308 23 35 48.76 +07 16 54.5 19.9 V G96 – Mt. Lemmon Survey MPS 413075
2010 09 14.40039 23 35 48.37 +07 16 53.3 19.9 V G96 – Mt. Lemmon Survey MPS 413075
2010 09 14.40768 23 35 48.01 +07 16 51.7 19.8 V G96 – Mt. Lemmon Survey MPS 413075
2011 11 02.46827 09 34 25.75 +14 42 13.7 20.5 V G96 – Mt. Lemmon Survey MPS 414314
2011 11 02.47402 09 34 26.22 +14 42 10.6 21.5 V G96 – Mt. Lemmon Survey MPS 414314
2011 11 02.47988 09 34 26.68 +14 42 08.1 21.4 V G96 – Mt. Lemmon Survey MPS 414314
2011 11 02.48573 09 34 27.08 +14 42 05.3 21.1 V G96 – Mt. Lemmon Survey MPS 414314
2011 11 22.51127 09 56 44.55 +11 59 35.9 21.5 V G96 – Mt. Lemmon Survey MPS 414314
2011 11 22.51655 09 56 44.84 +11 59 33.1 21.3 V G96 – Mt. Lemmon Survey MPS 414314
2011 11 22.52183 09 56 45.09 +11 59 30.8 21.2 V G96 – Mt. Lemmon Survey MPS 414314
2011 11 22.52698 09 56 45.38 +11 59 28.6 21.0 V G96 – Mt. Lemmon Survey MPS 414314
2012 01 21.35020 10 06 10.70 +07 38 06.7 20.5 V 691 – Steward Observatory, Kitt Peak-Spacewatch MPS 408944
2012 01 21.36814 10 06 09.99 +07 38 06.3 20.5 V 691 – Steward Observatory, Kitt Peak-Spacewatch MPS 408944
2012 01 21.38953 10 06 09.04 +07 38 06.1 20.5 V 691 – Steward Observatory, Kitt Peak-Spacewatch MPS 408944
2012 01 23.14625 10 04 56.09 +07 37 53.5 19.6 V J75 – OAM Observatory, La Sagra MPS 408944
2012 01 23.15705 10 04 55.54 +07 37 54.1 20.1 V J75 – OAM Observatory, La Sagra MPS 408944
2012 01 23.16785 10 04 55.06 +07 37 53.0 19.6 V J75 – OAM Observatory, La Sagra MPS 408944
2012 01 29.28725 10 00 10.85 +07 40 26.6 20.3 V 691 – Steward Observatory, Kitt Peak-Spacewatch MPS 410309
2012 01 29.30499 10 00 09.93 +07 40 27.3 20.3 V 691 – Steward Observatory, Kitt Peak-Spacewatch MPS 410309
2012 01 29.32272 10 00 09.03 +07 40 28.3 20.3 V 691 – Steward Observatory, Kitt Peak-Spacewatch MPS 410309
2012 02 01.11300 09 57 45.90 +07 43 05.9   621 – Bergisch Gladbach MPS 410309
2012 02 01.12532 09 57 45.17 +07 43 08.6   621 – Bergisch Gladbach MPS 410309
2012 02 01.13763 09 57 44.58 +07 43 09.7 20.4 V 621 – Bergisch Gladbach MPS 410309
2012 02 02.27666 09 56 44.56 +07 44 31.4 19.9 V 691 – Steward Observatory, Kitt Peak-Spacewatch MPS 410309
2012 02 02.29442 09 56 43.62 +07 44 32.8 19.8 V 691 – Steward Observatory, Kitt Peak-Spacewatch MPS 410309
2012 02 02.31215 09 56 42.57 +07 44 34.0 20.3 V 691 – Steward Observatory, Kitt Peak-Spacewatch MPS 410309
2012 02 13.37092 09 46 23.512 +08 03 35.97 19.7 g F51 – Pan-STARRS 1, Haleakala MPS 411676
2012 02 13.38411 09 46 22.724 +08 03 37.67 19.8 g F51 – Pan-STARRS 1, Haleakala MPS 411676
2012 02 13.39775 09 46 21.922 +08 03 39.35 19.3 r F51 – Pan-STARRS 1, Haleakala MPS 411676
2012 02 13.41028 09 46 21.176 +08 03 40.96 19.5 r F51 – Pan-STARRS 1, Haleakala MPS 411676
2012 02 14.35247 09 45 27.461 +08 05 41.27 20.1 w F51 – Pan-STARRS 1, Haleakala MPS 411676
2012 02 14.36670 09 45 26.618 +08 05 43.02 20.0 w F51 – Pan-STARRS 1, Haleakala MPS 411676
2012 02 14.39507 09 45 24.939 +08 05 46.75 20.1 w F51 – Pan-STARRS 1, Haleakala MPS 411676
2012 02 21.15578 09 39 05.96 +08 21 08.6 19.1 R H15 – ISON-NM Observatory, Mayhill MPS 413075
2012 02 21.16935 09 39 05.21 +08 21 10.0 19.4 R H15 – ISON-NM Observatory, Mayhill MPS 413075
2012 02 21.18296 09 39 04.45 +08 21 11.4 19.0 R H15 – ISON-NM Observatory, Mayhill MPS 413075
2012 02 21.19857 09 39 03.56 +08 21 13.7 19.3 R H15 – ISON-NM Observatory, Mayhill MPS 413075
2012 03 01.24754 09 31 24.78 +08 42 20.2 20.5 V G96 – Mt. Lemmon Survey MPS 414314
2012 03 01.25568 09 31 24.42 +08 42 20.9 20.2 V G96 – Mt. Lemmon Survey MPS 414314
2012 03 01.26382 09 31 24.02 +08 42 21.8 20.4 V G96 – Mt. Lemmon Survey MPS 414314
2012 03 01.27185 09 31 23.59 +08 42 22.8 20.0 V G96 – Mt. Lemmon Survey MPS 414314
2012 03 13.30802 09 23 46.693 +09 06 08.65 20.5 g F51 – Pan-STARRS 1, Haleakala MPS 416198
2012 03 13.32107 09 23 46.287 +09 06 09.84 20.6 g F51 – Pan-STARRS 1, Haleakala MPS 416198
2012 03 13.33398 09 23 45.872 +09 06 11.25 20.2 r F51 – Pan-STARRS 1, Haleakala MPS 416198
2012 03 13.34669 09 23 45.482 +09 06 12.44 20.2 r F51 – Pan-STARRS 1, Haleakala MPS 416198
2013 06 01.37090 15 00 38.697 -25 56 06.22 21.7 w F51 – Pan-STARRS 1, Haleakala MPS 469849
2013 06 01.38572 15 00 38.032 -25 56 02.21 21.6 w F51 – Pan-STARRS 1, Haleakala MPS 469849
2015 07 25.56328 01 52 46.834 +18 59 32.79 21.6 w F51 – Pan-STARRS 1, Haleakala MPS 618412
2015 07 25.57681 01 52 47.625 +18 59 39.81 21.7 w F51 – Pan-STARRS 1, Haleakala MPS 618412
2015 07 25.59050 01 52 48.450 +18 59 46.67 21.5 w F51 – Pan-STARRS 1, Haleakala MPS 618412
2015 10 10.29801 02 10 51.96 +25 06 20.4 19.7 V 703 – Catalina Sky Survey MPS 635284
2015 10 10.30304 02 10 51.81 +25 06 19.3 20.6 V 703 – Catalina Sky Survey MPS 635284
2015 10 10.30806 02 10 51.44 +25 06 18.9 19.9 V 703 – Catalina Sky Survey MPS 635284
2015 10 10.30873 02 10 51.48 +25 06 17.4 20.5 r G45 – Space Surveillance Telescope, Atom Site MPS 635284
2015 10 10.31310 02 10 51.27 +25 06 18.3 19.5 V 703 – Catalina Sky Survey MPS 635284
